Powrót do katalogu

COSMOS 2489

AktywnyMilitariaPO
NORAD 39484·PAYLOAD·🇷🇺 Russia

Wystrzelony Dec 25, 2013 z Plesetsk Cosmodrome

Loading…

Następne Przeloty (najbliższe 24 godziny)

TLE

ŚwieżeSource: Space-Track

Epoka: Sep 14, 2026, 14:33 UTC

1 39484U 13076B   26257.60659082  .00000092  00000-0  59599-3 0  9994
2 39484  82.4847 114.3949 0020326 262.0839  97.7933 12.42882606577058

Śledź COSMOS 2489 w czasie rzeczywistym z AllMySat

Download on the App Store